[[{"header":{"parameterUnit":"m.s-1","parameterCategory":1,"la1":30.2991,"la2":30.254,"lo1":-89.0895,"lo2":-89.0444,"dy":0.0017,"dx":0.0017,"nx":28,"ny":28,"refTime":"2024-05-21T21:00:00:Z","depth":0,"parameterNumber":2,"parameterNumberName":"U-component_of_WINDS"},"data":[0,0,0,0,0,0,0,0,0,0,0,0,0,0,0,0,0,0,0,0,0,0,0,0,0,0,0,0,0,0,0,0,0,0,0,0,0,0,0,0,0,0,0,0,0,0,0,0,0,0,0,0,0,0,0,0,0,0,-4.2202,-4.2203,0,-4.228,-4.2281,-4.2282,-4.2265,-4.2264,-4.2262,-4.2261,-4.2339,-4.2342,-4.2346,0,0,0,0,0,0,0,0,0,0,0,0,0,-4.2036,-4.204,-4.2202,-4.2203,-4.2204,-4.228,-4.2281,-4.2282,-4.2266,-4.2264,-4.2262,-4.226,-4.2338,-4.2342,-4.2346,0,0,0,0,0,0,0,0,0,0,0,0,0,-4.2111,-4.2041,-4.2202,-4.2205,-4.2206,-4.228,-4.2281,-4.2283,-4.2266,-4.2264,-4.2262,-4.226,-4.2336,-4.2341,-4.2346,-4.2422,0,0,-4.2362,-4.2364,0,0,0,0,0,0,0,0,-4.2107,-4.2117,-4.2203,-4.2205,-4.2206,-4.2261,-4.2252,-4.2329,-4.2267,-4.2243,-4.2261,-4.2258,-4.2315,-4.2321,-4.2341,-4.2425,-4.2429,-4.2363,-4.2366,-4.2368,-4.2369,0,0,0,0,0,0,0,-4.2102,-4.2113,-4.2233,-4.2205,-4.2206,-4.2202,-4.221,-4.2266,-4.229,-4.2245,-4.2244,-4.2254,-4.2315,-4.2336,-4.2342,-4.243,-4.2362,-4.2367,-4.237,-4.2372,-4.2581,-4.2583,0,0,0,0,0,0,-4.2095,-4.2109,-4.223,-4.2235,-4.215,-4.2207,-4.2216,-4.2245,-4.2289,-4.2294,-4.2255,-4.2252,-4.2328,-4.2336,-4.2345,-4.2436,-4.2368,-4.2373,-4.2376,-4.2579,-4.2582,-4.2584,0,0,0,0,0,0,-4.2092,-4.2106,-4.2227,-4.2172,-4.2187,-4.2212,-4.2245,-4.2248,-4.2269,-4.2297,-4.2301,-4.2272,-4.2327,-4.2338,-4.2403,-4.2438,-4.2375,-4.238,-4.2576,-4.258,-4.2583,-4.2618,0,0,0,0,0,0,-4.2087,-4.2105,-4.2134,-4.2173,-4.219,-4.2284,-4.2247,-4.2251,-4.2278,-4.2275,-4.2314,-4.2319,-4.2326,-4.2396,-4.2408,-4.2444,-4.2384,-4.2573,-4.2577,-4.2582,-4.2614,-4.2623,-4.263,0,0,0,0,0,-4.2081,-4.214,-4.2136,-4.215,-4.2227,-4.2286,-4.2296,-4.2304,-4.2281,-4.231,-4.2329,-4.2317,-4.2433,-4.2402,-4.2417,-4.2455,-4.257,-4.2576,-4.2581,-4.261,-4.2621,-4.263,0,0,0,0,0,0,-4.2104,-4.2145,-4.2141,-4.2214,-4.2247,-4.2283,-4.232,-4.2315,-4.2354,-4.2349,-4.2357,-4.2366,-4.2432,-4.245,-4.2415,-4.253,-4.2498,-4.2507,-4.2516,-4.2526,-4.2534,-4.2527,-4.2388,0,0,0,0,0,-4.2118,-4.2163,-4.2197,-4.2258,-4.2275,-4.2295,-4.2321,-4.2325,-4.2359,-4.2372,-4.2395,-4.2428,-4.2472,-4.25,-4.2542,-4.2618,-4.2626,-4.2651,-4.2659,-4.2666,-4.2672,-4.2714,-4.2725,-4.2603,-4.2603,-4.2602,0,0,-4.2145,-4.2174,-4.2202,-4.2263,-4.2289,-4.2335,-4.2307,-4.2357,-4.2391,-4.2379,-4.2442,-4.2461,-4.2498,-4.2569,-4.2601,-4.2586,-4.2709,-4.2673,-4.2678,-4.2681,-4.2721,-4.2732,-4.2742,-4.2606,-4.2606,-4.2605,0,0,-4.222,-4.2247,-4.2301,-4.2328,-4.2368,-4.2381,-4.2395,-4.2433,-4.2445,-4.2509,-4.2501,-4.2542,-4.2618,-4.2645,-4.2668,-4.2756,-4.2747,-4.277,-4.2811,-4.2851,-4.2861,-4.2869,-4.29,-4.2911,-4.2777,-4.2777,-4.2777,0,-4.2249,-4.2319,-4.2329,-4.238,-4.2407,-4.2401,-4.2456,-4.2482,-4.2533,-4.2552,-4.2535,-4.263,-4.2654,-4.2732,-4.2753,-4.2773,-4.2788,-4.2764,-4.2859,-4.2867,-4.2875,-4.2905,-4.2916,-4.2779,-4.2779,-4.2779,-4.2778,0,-4.2353,-4.2402,-4.2441,-4.2492,-4.2524,-4.2577,-4.2594,-4.2625,-4.2627,-4.2642,-4.2708,-4.2738,-4.2786,-4.2805,-4.2806,-4.2883,-4.2872,-4.2857,-4.2824,-4.2889,-4.2917,-4.2928,-4.2783,-4.2782,-4.2781,-4.278,0,0,-4.2441,-4.2499,-4.2513,-4.2536,-4.2581,-4.2619,-4.2672,-4.272,-4.2746,-4.2783,-4.2827,-4.2892,-4.2879,-4.2906,-4.2911,-4.2947,-4.3014,-4.2927,-4.2928,-4.2941,-4.3099,-4.3109,-4.3121,-4.3009,-4.3011,-4.3013,-4.3096,0,-4.2519,-4.2612,-4.2624,-4.2707,-4.2752,-4.2748,-4.2794,-4.2827,-4.2843,-4.2883,-4.2901,-4.2947,-4.2927,-4.2943,-4.2979,-4.2998,-4.3045,-4.2993,-4.3049,-4.3051,-4.3038,-4.3136,-4.3146,-4.3222,-4.3106,-4.3108,-4.311,0,-4.2621,-4.2662,-4.275,-4.279,-4.2809,-4.285,-4.2896,-4.2935,-4.2972,-4.2982,-4.3013,-4.3014,-4.3068,-4.3036,-4.3111,-4.3075,-4.31,-4.3113,-4.3116,-4.312,-4.3082,-4.3141,-4.3247,-4.3257,-4.3127,-4.3125,-4.3124,0,-4.2675,-4.2752,-4.2815,-4.2835,-4.2883,-4.2912,-4.2934,-4.2969,-4.2998,-4.3038,-4.3056,-4.3102,-4.3127,-4.3162,-4.3175,-4.3151,-4.325,-4.3219,-4.3258,-4.3258,-4.3277,-4.3275,-4.3387,-4.3296,-4.3296,-4.3296,-4.3296,0,-4.276,-4.2813,-4.284,-4.2878,-4.2938,-4.2951,-4.301,-4.303,-4.3062,-4.3104,-4.3104,-4.3143,-4.3159,-4.3201,-4.3212,-4.3272,-4.3284,-4.3293,-4.3294,-4.3292,-4.329,-4.3306,-4.33,-4.3299,-4.3298,-4.3298,-4.3297,0,-4.2829,-4.2849,-4.2917,-4.2958,-4.2969,-4.3012,-4.3047,-4.3084,-4.3101,-4.3154,-4.3167,-4.3193,-4.3243,-4.3261,-4.3321,-4.3328,-4.3398,-4.3396,-4.3385,-4.3385,-4.3423,-4.3419,-4.3547,-4.3564,-4.3464,-4.3465,-4.3466,0,-4.2881,-4.2922,-4.2968,-4.2996,-4.3019,-4.3065,-4.3095,-4.311,-4.3141,-4.3187,-4.3219,-4.3268,-4.3308,-4.3388,-4.3412,-4.3458,-4.3457,-4.3499,-4.3463,-4.3459,-4.3456,-4.3452,-4.3456,-4.3504,-4.3505,-4.3506,-4.3507,0,-4.297,-4.2978,-4.3021,-4.3068,-4.3104,-4.3141,-4.3178,-4.3201,-4.3222,-4.3256,-4.3308,-4.3339,-4.3401,-4.345,-4.3498,-4.352,-4.3517,-4.3518,-4.353,-4.3526,-4.3517,-4.3521,-4.3401,-4.3514,-4.3514,-4.3513,-4.3513,-4.3512,-4.3031,-4.3068,-4.3106,-4.3154,-4.3184,-4.3218,-4.3255,-4.3277,-4.332,-4.3372,-4.3379,-4.3434,-4.3472,-4.3535,-4.356,-4.3603,-4.3591,-4.3608,-4.3612,-4.3615,-4.3618,-4.3513,-4.3612,-4.3612,-4.3611,-4.3611,-4.3611,0,-4.3119,-4.3144,-4.3189,-4.324,-4.3278,-4.3274,-4.3314,-4.3346,-4.3395,-4.343,-4.3471,-4.353,-4.3578,-4.3607,-4.3655,-4.3684,-4.3684,-4.3696,-4.3693,-4.3698,-4.3626,-4.361,-4.3696,-4.3696,-4.3696,-4.3696,-4.3696,-4.3696,-4.3169,-4.3231,-4.3244,-4.3321,-4.3345,-4.34,-4.3423,-4.3455,-4.3483,-4.355,-4.359,-4.3609,-4.3642,-4.3693,-4.3737,-4.3745,-4.3762,-4.3775,-4.3781,-4.3712,-4.3703,-4.3695,-4.368,-4.3779,-4.3779,-4.385,-4.3851,-4.3851]},{"header":{"parameterUnit":"m.s-1","parameterCategory":1,"la1":30.2991,"la2":30.254,"lo1":-89.0895,"lo2":-89.0444,"dy":0.0017,"dx":0.0017,"nx":28,"ny":28,"refTime":"2024-05-21T21:00:00:Z","depth":0,"parameterNumber":3,"parameterNumberName":"V-component_of_WINDS"},"data":[0,0,0,0,0,0,0,0,0,0,0,0,0,0,0,0,0,0,0,0,0,0,0,0,0,0,0,0,0,0,0,0,0,0,0,0,0,0,0,0,0,0,0,0,0,0,0,0,0,0,0,0,0,0,0,0,0,0,5.1218,5.1218,0,5.1279,5.1279,5.128,5.1296,5.1295,5.1295,5.1295,5.1352,5.1354,5.1356,0,0,0,0,0,0,0,0,0,0,0,0,0,5.1111,5.1113,5.1218,5.1218,5.1219,5.1278,5.1279,5.128,5.1296,5.1295,5.1295,5.1294,5.1351,5.1354,5.1356,0,0,0,0,0,0,0,0,0,0,0,0,0,5.1163,5.1114,5.1217,5.1234,5.1236,5.1278,5.1279,5.128,5.1296,5.1295,5.1295,5.1294,5.1351,5.1353,5.1356,5.1384,0,0,5.1365,5.1366,0,0,0,0,0,0,0,0,5.116,5.1167,5.1231,5.1233,5.1236,5.1279,5.1263,5.1315,5.1296,5.1273,5.1295,5.1294,5.1328,5.1332,5.1345,5.1387,5.1389,5.1365,5.1367,5.1368,5.1369,0,0,0,0,0,0,0,5.1157,5.1165,5.1242,5.1232,5.1235,5.1238,5.1244,5.1273,5.1302,5.1275,5.1276,5.1284,5.1329,5.1342,5.1346,5.139,5.1365,5.1367,5.1369,5.137,5.1459,5.146,0,0,0,0,0,0,5.1151,5.1161,5.124,5.1243,5.1196,5.124,5.1247,5.1266,5.1302,5.1308,5.1284,5.1284,5.1338,5.1343,5.1348,5.1385,5.1368,5.137,5.1372,5.1459,5.146,5.146,0,0,0,0,0,0,5.1148,5.1158,5.1237,5.1203,5.1213,5.1242,5.1262,5.1267,5.128,5.1309,5.1314,5.1292,5.1337,5.1344,5.1376,5.1387,5.1372,5.1374,5.1458,5.1459,5.146,5.1457,0,0,0,0,0,0,5.1145,5.1157,5.1168,5.1203,5.1215,5.1265,5.1263,5.1269,5.1286,5.1286,5.1318,5.1323,5.1338,5.1372,5.1379,5.139,5.1376,5.1457,5.1458,5.146,5.1456,5.1457,5.1459,0,0,0,0,0,5.1141,5.1164,5.1169,5.1178,5.1231,5.1265,5.1272,5.129,5.1287,5.1298,5.1317,5.1322,5.1385,5.1375,5.1383,5.1395,5.1456,5.1458,5.146,5.1455,5.1457,5.1459,0,0,0,0,0,0,5.1127,5.1168,5.1175,5.1209,5.1234,5.1268,5.1283,5.1291,5.1316,5.1315,5.1335,5.1342,5.1372,5.1387,5.1375,5.1425,5.142,5.1424,5.1414,5.1416,5.1418,5.1413,5.1379,0,0,0,0,0,5.1129,5.1155,5.1189,5.1215,5.1228,5.1253,5.1269,5.1281,5.1307,5.1317,5.1337,5.1361,5.1386,5.1402,5.1427,5.1458,5.1466,5.1471,5.1473,5.1474,5.1476,5.1495,5.1498,5.1466,5.1466,5.1465,0,0,5.113,5.1156,5.1171,5.1213,5.1234,5.126,5.1262,5.1288,5.1308,5.132,5.1352,5.1368,5.1395,5.1427,5.1442,5.1441,5.1487,5.1476,5.1476,5.1478,5.1497,5.15,5.1502,5.1467,5.1466,5.1466,0,0,5.1148,5.117,5.1195,5.1217,5.1249,5.1266,5.1272,5.1305,5.1317,5.135,5.136,5.1382,5.1425,5.1444,5.146,5.1486,5.1492,5.1494,5.1501,5.1519,5.1522,5.1524,5.1534,5.1537,5.1496,5.1496,5.1496,0,5.1146,5.1186,5.1207,5.1234,5.1252,5.1267,5.1293,5.1312,5.1349,5.1361,5.1359,5.1414,5.1434,5.1471,5.1478,5.149,5.1497,5.149,5.152,5.1522,5.1525,5.1535,5.1538,5.1496,5.1496,5.1496,5.1496,0,5.1183,5.1211,5.1227,5.1266,5.1286,5.1312,5.1336,5.1353,5.1364,5.1381,5.1414,5.1438,5.1468,5.1478,5.1487,5.1517,5.1515,5.1516,5.1512,5.1528,5.1537,5.1541,5.1496,5.1496,5.1496,5.1496,0,0,5.1191,5.1243,5.1248,5.1267,5.1304,5.1325,5.1352,5.1384,5.1398,5.1424,5.1447,5.1483,5.1485,5.1503,5.1515,5.1531,5.1551,5.153,5.1531,5.1533,5.1586,5.1585,5.1589,5.1555,5.1556,5.1557,5.1583,0,5.1214,5.1264,5.1284,5.1324,5.1351,5.1366,5.1389,5.1414,5.1431,5.1454,5.1472,5.1498,5.1499,5.151,5.1526,5.1545,5.1562,5.1543,5.1576,5.1577,5.1569,5.1593,5.1592,5.1616,5.1587,5.1588,5.1588,0,5.1246,5.1274,5.1318,5.1353,5.1365,5.1386,5.1417,5.144,5.1468,5.1479,5.15,5.1512,5.154,5.1534,5.1572,5.156,5.1574,5.1585,5.1587,5.159,5.1583,5.1598,5.1624,5.1628,5.1594,5.1594,5.1593,0,5.1249,5.1298,5.1331,5.1345,5.1387,5.1402,5.1419,5.1447,5.1466,5.1492,5.1504,5.1533,5.1549,5.1571,5.159,5.1584,5.1627,5.1622,5.1636,5.1636,5.1644,5.1643,5.1674,5.1653,5.1653,5.1653,5.1653,0,5.1271,5.1298,5.1333,5.1353,5.1383,5.1405,5.1433,5.1452,5.1477,5.15,5.1514,5.1536,5.1559,5.1583,5.1598,5.1628,5.1635,5.1644,5.1648,5.1643,5.1642,5.1652,5.1651,5.1654,5.1654,5.1654,5.1654,0,5.1279,5.1304,5.1341,5.1378,5.1388,5.1409,5.144,5.146,5.1478,5.1507,5.1515,5.1543,5.1573,5.1594,5.1631,5.1641,5.1673,5.1676,5.1664,5.1666,5.1679,5.1678,5.1717,5.1724,5.1699,5.1699,5.1699,0,5.1292,5.1313,5.1354,5.1372,5.139,5.1418,5.1437,5.146,5.1479,5.1514,5.153,5.156,5.1586,5.1632,5.1655,5.1683,5.1688,5.17,5.1692,5.1687,5.1688,5.1687,5.1689,5.1701,5.1701,5.1701,5.1701,0,5.1313,5.1325,5.1353,5.1386,5.1409,5.1436,5.1462,5.1475,5.1503,5.1524,5.1555,5.1575,5.1615,5.1645,5.1676,5.1693,5.1701,5.1704,5.1708,5.1704,5.1696,5.1701,5.1668,5.1702,5.1702,5.1702,5.1702,5.1702,5.1325,5.1344,5.1377,5.1408,5.1431,5.1455,5.1476,5.1498,5.1525,5.156,5.1572,5.1604,5.1632,5.1676,5.1693,5.1718,5.1717,5.1724,5.1726,5.1727,5.1728,5.1692,5.1724,5.1724,5.1724,5.1724,5.1724,0,5.1346,5.1368,5.1397,5.1435,5.146,5.1468,5.1498,5.1517,5.1546,5.1573,5.1599,5.1635,5.1664,5.169,5.1721,5.1736,5.1741,5.1743,5.1742,5.1746,5.1726,5.1719,5.1739,5.1739,5.1739,5.1739,5.1739,5.1739,5.1361,5.1395,5.1411,5.1456,5.1478,5.1511,5.1528,5.1551,5.1572,5.1613,5.1638,5.1656,5.1682,5.1715,5.1742,5.1749,5.176,5.1761,5.1769,5.1749,5.1748,5.1746,5.1739,5.1763,5.1763,5.1787,5.1788,5.1788]}]]